FW5697 Weather Reports


time (UTC)temp
F
wind
direction
speed
knots
gust
knots
rain 1hr
in
rain 24hr
in
rain mn
in
humidity
%
barometer
mb
20240614111516 64 0 0.0 0.0 0.00 0.00 0.00 92 1015.8
20240614110011 64 0 0.0 0.0 0.00 0.00 0.00 92 1015.5
20240614104519 64 0 0.0 0.0 0.00 0.00 0.00 91 1015.4
20240614103011 64 0 0.0 0.0 0.00 0.00 0.00 91 1015.4
20240614101518 64 0 0.0 0.9 0.00 0.00 0.00 91 1015.5
20240614100017 64 0 0.0 0.0 0.00 0.00 0.00 91 1015.5
20240614094518 64 0 0.0 0.9 0.00 0.00 0.00 91 1015.4
20240614093019 64 0 0.0 0.9 0.00 0.00 0.00 91 1015.2
20240614091529 65 0 0.0 0.9 0.00 0.00 0.00 91 1015.2
20240614090014 65 0 0.0 0.9 0.00 0.00 0.00 91 1015.0
20240614084514 65 0 0.0 0.0 0.00 0.00 0.00 90 1015.0
20240614083016 65 0 0.0 0.0 0.00 0.00 0.00 90 1014.9
20240614081523 65 0 0.0 0.0 0.00 0.00 0.00 90 1015.1
20240614080013 65 0 0.0 0.0 0.00 0.00 0.00 89 1014.9
20240614074514 66 0 0.0 0.0 0.00 0.00 0.00 89 1015.1
20240614073013 66 0 0.0 0.0 0.00 0.00 0.00 88 1015.2
20240614071513 66 0 0.0 0.0 0.00 0.00 0.00 88 1015.1
20240614070016 67 0 0.0 0.0 0.00 0.00 0.00 88 1014.9
20240614064511 67 0 0.0 0.0 0.00 0.00 0.00 87 1014.6
20240614063014 67 0 0.0 0.0 0.00 0.00 0.00 87 1014.4
20240614061512 67 0 0.0 0.0 0.00 0.00 0.00 87 1014.5
20240614060018 68 0 0.0 0.0 0.00 0.00 0.00 86 1014.6
20240614054526 68 0 0.0 0.0 0.00 0.00 0.00 86 1014.6
20240614053024 68 0 0.0 0.0 0.00 0.00 0.00 85 1014.5
20240614051512 69 0 0.0 0.0 0.00 0.00 0.00 85 1014.4
20240614050020 69 0 0.0 0.0 0.00 0.00 0.00 84 1014.5
20240614044523 70 0 0.0 0.0 0.00 0.00 0.00 84 1014.6
20240614043013 70 0 0.0 0.0 0.00 0.00 0.00 82 1014.6
20240614041520 70 0 0.0 0.0 0.00 0.00 0.00 82 1014.7
20240614040015 71 0 0.0 0.0 0.00 0.00 0.00 81 1014.6
20240614034514 71 0 0.0 0.0 0.00 0.00 0.00 81 1014.6
20240614033011 72 0 0.0 0.0 0.00 0.00 0.00 80 1014.6
20240614031516 72 0 0.0 0.0 0.00 0.00 0.00 79 1014.8
20240614030014 73 0 0.0 0.0 0.00 0.00 0.00 77 1014.6
20240614024514 74 0 0.0 0.0 0.00 0.00 0.00 75 1014.4
20240614023015 74 0 0.0 0.0 0.00 0.00 0.00 74 1014.4
20240614021515 75 0 0.0 0.0 0.00 0.00 0.00 72 1014.4
20240614020014 76 0 0.0 0.0 0.00 0.00 0.00 71 1014.3
20240614014516 77 0 0.0 0.9 0.00 0.00 0.00 69 1014.2
20240614013016 78 0 0.0 0.0 0.00 0.00 0.00 65 1014.2
20240614011516 80 0 0.0 0.0 0.00 0.00 0.00 62 1014.1
20240614010011 81 0 0.0 0.0 0.00 0.00 0.00 60 1014.0
20240614004533 83 0 0.0 0.0 0.00 0.00 0.00 56 1014.0
20240614003020 84 0 0.0 0.0 0.00 0.00 0.00 55 1014.1
20240614001518 85 0 0.0 0.0 0.00 0.00 0.00 53 1014.2
20240614000020 86 0 0.0 0.0 0.00 0.00 0.00 51 1014.3
20240613234553 87 0 0.0 0.0 0.00 0.00 0.00 49 1014.3
20240613233017 87 0 0.0 0.9 0.00 0.00 0.00 47 1014.3
20240613231519 89 0 0.0 0.9 0.00 0.00 0.00 45 1014.3
20240613230020 90 0 0.0 1.7 0.00 0.00 0.00 43 1014.3
20240613224516 91 94 0.9 4.3 0.00 0.00 0.00 41 1014.1
20240613223015 91 0 0.9 2.6 0.00 0.00 0.00 41 1013.8
20240613221516 91 326 0.0 3.5 0.00 0.00 0.00 41 1013.8
20240613220017 90 0 0.9 4.3 0.00 0.00 0.00 40 1014.0
20240613214518 89 0 0.0 4.3 0.00 0.00 0.00 45 1014.0
20240613213034 88 0 0.0 0.9 0.00 0.00 0.00 45 1014.0
20240613211513 89 0 0.0 3.5 0.00 0.00 0.00 44 1014.1
20240613210027 91 65 1.7 7.0 0.00 0.00 0.00 43 1014.0
20240613204512 90 79 0.0 2.6 0.00 0.00 0.00 41 1014.1
20240613203016 91 95 0.9 2.6 0.00 0.00 0.00 44 1014.1
20240613201516 90 39 1.7 8.7 0.00 0.00 0.00 44 1014.2
20240613200013 90 38 0.9 1.7 0.00 0.00 0.00 44 1014.3
20240613194517 90 117 0.9 3.5 0.00 0.00 0.00 45 1014.4
20240613193017 90 10 2.6 6.1 0.00 0.00 0.00 45 1014.6
20240613191514 90 9 0.9 4.3 0.00 0.00 0.00 44 1014.7
20240613190012 89 167 1.7 5.2 0.00 0.00 0.00 45 1014.9
20240613184515 89 86 0.9 5.2 0.00 0.00 0.00 49 1015.1
20240613183015 89 149 0.9 8.7 0.00 0.00 0.00 48 1015.3
20240613181523 89 36 0.9 2.6 0.00 0.00 0.00 48 1015.4
20240613180030 89 0 1.7 6.1 0.00 0.00 0.00 45 1015.5
20240613174527 89 142 0.9 2.6 0.00 0.00 0.00 46 1015.5
20240613173037 88 126 0.9 8.7 0.00 0.00 0.00 46 1015.7
20240613171515 88 91 1.7 4.3 0.00 0.00 0.00 46 1015.7
20240613170023 88 98 0.9 3.5 0.00 0.00 0.00 47 1015.9
20240613164520 88 84 1.7 4.3 0.00 0.00 0.00 48 1015.9
20240613163018 87 122 0.9 7.0 0.00 0.00 0.00 48 1016.1
20240613161539 86 0 0.0 7.0 0.00 0.00 0.00 50 1016.3
20240613160013 85 15 2.6 6.1 0.00 0.00 0.00 52 1016.3
20240613154519 85 40 0.9 3.5 0.00 0.00 0.00 52 1016.3
20240613153031 84 41 1.7 3.5 0.00 0.00 0.00 55 1016.4
20240613151515 82 32 1.7 4.3 0.00 0.00 0.00 59 1016.3
20240613150019 82 30 0.0 1.7 0.00 0.00 0.00 59 1016.3
20240613144519 80 63 0.9 3.5 0.00 0.00 0.00 66 1016.6
20240613143011 78 5 0.0 1.7 0.00 0.00 0.00 71 1016.6
20240613141516 77 71 0.0 2.6 0.00 0.00 0.00 71 1016.6
20240613140016 76 56 0.9 3.5 0.00 0.00 0.00 76 1016.6
20240613134520 76 43 1.7 3.5 0.00 0.00 0.00 77 1016.7
20240613133014 75 36 0.9 2.6 0.00 0.00 0.00 80 1016.8
20240613131512 74 54 0.0 1.7 0.00 0.00 0.00 82 1016.6
20240613130013 73 0 0.0 2.6 0.00 0.00 0.00 82 1016.7
20240613124513 72 0 0.9 1.7 0.00 0.00 0.00 84 1016.5
20240613123012 70 36 0.0 1.7 0.00 0.00 0.00 85 1016.3
20240613121514 69 36 0.9 1.7 0.00 0.00 0.00 87 1016.2
20240613120015 67 0 0.0 1.7 0.00 0.00 0.00 89 1016.1
20240613114513 67 42 0.0 1.7 0.00 0.00 0.00 90 1015.9
20240613113020 66 0 0.0 0.0 0.00 0.00 0.00 91 1015.7